Location: Balaclava NSW 2575, Australia
(34.4510°S, 150.4953°E)
Time: 01:56:09
(UTC+10:00)

A-11 Canister half - Pass Details

Date: 21 June 2021
Orbit: 1513 x 1687 km, 47.2° (Epoch: 28 July)

Event Time Altitude Azimuth Distance (km) Brightness Sun altitude
Rises 21:52:30 0° 235° (SW) 4,810 12.0 -60.2°
Reaches altitude 10° 21:55:35 10° 234° (SW) 3,845 11.4 -60.8°
Enters shadow 21:56:41 14° 233° (SW) 3,512 11.1 -61.0°
